Miscellaneous Local Product
Issued by NWS Hastings, NE

Home | Current Version | Previous Version | Graphics & Text | Print | Product List | Glossary On
Versions: 1 2 3 4 5 6 7 8 9 10 11 12 13 14 15 16 17 18 19 20 21 22 23 24 25 26 27 28 29 30 31 32 33 34 35 36 37 38 39 40 41 42 43 44 45 46 47 48 49 50
661
AXUS43 KGID 250202
MISGRI

GID CWA HOURLY WEATHER ROUNDUP
NATIONAL WEATHER SERVICE HASTINGS NE
900 PM CDT THU MAY 24 2018

NOTE: "FAIR" INDICATES FEW OR NO CLOUDS BELOW 12,000 FEET WITH NO
SIGNIFICANT WEATHER AND/OR OBSTRUCTIONS TO VISIBILITY.

...SOUTH CENTRAL NEBRASKA...

CITY           SKY/WX    TMP DP  RH WIND       PRES   REMARKS
GRAND ISLAND   CLEAR     78  58  49 S12       29.91R
KEARNEY        CLEAR     76  59  55 S9        29.92R
HASTINGS       CLEAR     79  57  46 S8        29.92S
ORD            PTCLDY    78  63  59 S7        29.88R
YORK           CLEAR     79  59  50 S7        29.92R
AURORA         CLEAR     79  58  47 S12       29.91S
LEXINGTON      PTCLDY    78  62  58 SE8       29.91S
HOLDREGE       CLOUDY    78  63  59 S13       29.92S
HEBRON         CLEAR     79  62  56 S7        29.93R

...NEBRASKA PANHANDLE...

CITY           SKY/WX    TMP DP  RH WIND       PRES   REMARKS
CHADRON        CLEAR     74  63  68 S3        29.93S
ALLIANCE       PTCLDY    73  54  51 CALM      29.97R
SCOTTSBLUFF    CLEAR     74  55  51 CALM      29.98R
SIDNEY         CLEAR     68  55  63 NE5       30.03S

...WESTERN AND NORTH CENTRAL NEBRASKA...

CITY           SKY/WX    TMP DP  RH WIND       PRES   REMARKS
VALENTINE      PTCLDY    79  56  45 N7        29.89R
AINSWORTH      PTCLDY    73  65  76 NW9       29.91R
ONEILL         CLEAR     77  66  67 SE3       29.89R
BROKEN BOW     PTCLDY    78  66  66 SW3       29.92R
IMPERIAL       CLEAR     75  58  55 E7        29.97R
NORTH PLATTE   CLEAR     72  65  78 S3        29.94R
MCCOOK         CLOUDY    78  62  57 CALM      29.91S

...EASTERN NEBRASKA...

CITY           SKY/WX    TMP DP  RH WIND       PRES   REMARKS
NORFOLK        PTCLDY    77  56  48 S9        29.87R
SO SIOUX CITY  CLEAR     82  61  48 S13       29.87S
TEKAMAH        PTCLDY    78  66  66 S8        29.89R
COLUMBUS       CLEAR     79  58  48 SE7       29.90S
ALBION         CLEAR     78  59  53 S5        29.90R
OMAHA EPPLEY   CLOUDY    84  64  50 S22G29    29.90R
OFFUTT AFB     MOCLDY    81  67  61 SE18      29.90R
MILLARD        MOCLDY    84  66  55 SE7       29.90S
LINCOLN        MOCLDY    82  62  50 S14       29.90S
NEBRASKA CITY  CLOUDY    77  65  66 S13       29.94S
BEATRICE       MOCLDY    79  63  57 S9G17     29.93S
FALLS CITY     CLOUDY    73  64  73 S9        29.94F

...NORTHERN KANSAS...

CITY           SKY/WX    TMP DP  RH WIND       PRES   REMARKS
GOODLAND       CLOUDY    75  48  38 SW9       29.99R
HILL CITY      CLOUDY    80  53  39 N21G32    29.94R
NORTON         PTCLDY    73  46  38 SW6G17    29.91S
PHILLIPSBURG   CLEAR     79  63  57 SE6       29.91R
SMITH CENTER   CLEAR     75  63  64 SE9       29.92R
HAYS           CLOUDY    77  66  68 SE12      29.92S
RUSSELL        CLEAR     77  67  71 SE13      29.91S
CONCORDIA      CLEAR     73  63  70 S8        29.93S
SALINA         CLEAR     81  66  60 SE13      29.94R
TOPEKA         CLOUDY    69  68  96 E7        29.98S



USA.gov is the U.S. government's official web portal to all federal, state and local government web resources and services.